Date String (YYYY-MM-DD hh:mm:ss) UTC,Instrument flags,Ambient pressure (hPa),Sample flow (lpm),Bypass flow (lpm),Sample temperature (°C),Ambient temperature (°C),ASC tube jacket temperature (°C),LED temperature (°C),Box temperature (°C),Sample RH (%),Span deviation,Mass concentration (μg/m³),Mass concentration (μg/m³),Mass concentration (μg/m³)
DateTimeUTC,F1_M11,P_M11,Q1_M11,Q2_M11,T1_M11,T2_M11,T3_M11,T4_M11,T5_M11,U1_M11,ZSPAN_M11,X0_M11,X2_M11,X1_M11
2022-09-14 05:00:00,,0822.6,4.99,0.00,30.3,29.1,00.0,39.1,32.2,14.5,0001.3,0013.39,0008.55,0007.83
2022-09-14 05:01:00,,0822.6,5.00,0.00,30.4,29.1,00.0,39.1,32.2,14.6,0001.0,0013.43,0008.58,0007.86
2022-09-14 05:02:00,,0822.6,5.01,0.00,30.4,29.1,00.0,39.1,32.2,14.6,0001.0,0013.86,0008.64,0007.90
2022-09-14 05:03:00,,0822.6,4.99,0.00,30.4,29.1,00.0,39.1,32.2,14.5,0001.1,0014.03,0008.68,0007.93
2022-09-14 05:04:00,,0822.6,5.00,0.00,30.4,29.1,00.0,39.1,32.2,14.6,0000.7,0014.14,0008.67,0007.94
2022-09-14 05:05:00,,0822.6,5.00,0.00,30.4,29.1,00.0,39.1,32.2,14.6,0000.9,0015.69,0008.66,0007.93
2022-09-14 05:06:00,,0822.6,5.00,0.00,30.4,27.9,00.0,39.1,32.2,14.5,0001.2,0015.78,0008.64,0007.89
2022-09-14 05:07:00,,0822.6,5.00,0.00,30.4,26.8,00.0,39.0,32.1,14.3,0001.0,0015.77,0008.57,0007.83
2022-09-14 05:08:00,,0822.6,5.00,0.00,30.3,26.8,00.0,39.0,31.9,14.3,0000.8,0016.06,0008.50,0007.76
2022-09-14 05:09:00,,0822.6,5.01,0.00,30.2,27.0,00.0,38.9,31.7,14.4,0001.5,0015.73,0008.46,0007.74
2022-09-14 05:10:00,,0822.7,4.99,0.00,30.1,27.3,00.0,38.9,31.8,14.5,0001.4,0015.53,0008.41,0007.70
2022-09-14 05:11:00,,0822.6,5.00,0.00,30.1,27.6,00.0,38.9,31.8,14.6,0001.7,0015.45,0008.30,0007.65
2022-09-14 05:12:00,,0822.6,4.99,0.00,30.0,27.8,00.0,38.9,31.7,14.5,0002.1,0015.30,0008.20,0007.57
2022-09-14 05:13:00,,0822.6,5.00,0.00,30.0,27.9,00.0,38.9,31.8,14.7,0002.2,0014.97,0008.08,0007.46
2022-09-14 05:14:00,,0822.6,5.01,0.00,30.0,28.1,00.0,38.9,31.8,15.1,0002.0,0014.81,0008.00,0007.39
2022-09-14 05:15:00,,0822.6,4.99,0.00,30.0,28.2,00.0,38.9,31.8,14.7,0002.0,0014.57,0007.87,0007.30
2022-09-14 05:16:00,,0822.6,4.99,0.00,30.0,28.3,00.0,38.9,31.8,14.7,0002.0,0013.34,0007.76,0007.20
2022-09-14 05:17:00,,0822.6,5.01,0.00,30.0,28.4,00.0,38.8,31.8,14.7,0002.1,0013.12,0007.70,0007.11
2022-09-14 05:18:00,,0822.6,5.00,0.00,30.0,28.5,00.0,38.8,31.9,14.7,0002.4,0013.24,0007.63,0007.05
2022-09-14 05:19:00,,0822.6,5.00,0.00,30.0,28.5,00.0,38.8,31.9,14.7,0002.8,0013.47,0007.61,0007.02
2022-09-14 05:20:00,,0822.6,5.01,0.00,30.0,28.6,00.0,38.9,31.9,14.6,0002.5,0013.49,0007.58,0006.98
2022-09-14 05:21:00,,0822.6,5.00,0.00,30.0,28.6,00.0,38.9,31.9,14.7,0002.7,0013.43,0007.58,0006.94
2022-09-14 05:22:00,,0822.6,4.98,0.00,30.1,28.6,00.0,38.9,31.9,14.8,0002.9,0013.16,0007.54,0006.90
2022-09-14 05:23:00,,0822.7,5.00,0.00,30.1,28.7,00.0,38.9,31.9,14.8,0003.0,0013.18,0007.54,0006.87
2022-09-14 05:24:00,,0822.6,4.99,0.00,30.1,28.7,00.0,38.9,32.0,14.6,0003.0,0013.17,0007.53,0006.88
2022-09-14 05:25:00,,0822.6,5.01,0.00,30.1,28.8,00.0,38.9,32.0,14.7,0003.0,0012.84,0007.50,0006.87
2022-09-14 05:26:00,,0822.6,5.00,0.00,30.1,28.8,00.0,38.9,32.0,14.5,0003.1,0013.08,0007.51,0006.86
2022-09-14 05:27:00,,0822.6,5.00,0.00,30.1,28.8,00.0,38.9,32.0,14.5,0003.1,0013.04,0007.53,0006.90
2022-09-14 05:28:00,,0822.6,5.01,0.00,30.2,28.9,00.0,38.9,32.0,14.4,0003.1,0013.65,0007.54,0006.96
2022-09-14 05:29:00,,0822.6,5.00,0.00,30.2,28.9,00.0,38.9,32.0,14.5,0003.0,0013.21,0007.59,0007.01
2022-09-14 05:30:00,,0822.6,5.00,0.00,30.2,28.9,00.0,38.9,32.0,14.6,0003.0,0012.85,0007.63,0007.04
2022-09-14 05:31:00,,0822.6,5.01,0.00,30.2,28.9,00.0,39.0,32.1,14.7,0003.0,0012.47,0007.65,0007.08
2022-09-14 05:32:00,,0822.7,4.99,0.00,30.2,28.9,00.0,39.0,32.1,14.7,0002.9,0012.88,0007.67,0007.11
2022-09-14 05:33:00,,0822.6,4.99,0.00,30.3,29.0,00.0,39.0,32.1,14.6,0003.2,0014.06,0007.71,0007.17
2022-09-14 05:34:00,,0822.7,5.02,0.00,30.3,29.0,00.0,39.0,32.1,14.6,0003.0,0013.99,0007.74,0007.21
2022-09-14 05:35:00,,0822.6,4.99,0.00,30.3,29.0,00.0,39.0,32.1,14.6,0002.9,0014.35,0007.81,0007.25
2022-09-14 05:36:00,,0822.6,5.00,0.00,30.3,29.0,00.0,39.0,32.1,14.4,0002.5,0015.94,0007.87,0007.31
2022-09-14 05:37:00,,0822.6,5.01,0.00,30.3,29.1,00.0,39.0,32.2,14.5,0002.8,0016.03,0007.91,0007.36
2022-09-14 05:38:00,,0822.6,5.00,0.00,30.3,29.1,00.0,39.1,32.2,14.5,0002.6,0015.94,0007.99,0007.42
2022-09-14 05:39:00,,0822.6,4.99,0.00,30.4,29.1,00.0,39.1,32.2,14.3,0002.4,0015.52,0008.04,0007.47
2022-09-14 05:40:00,,0822.6,5.01,0.00,30.4,29.1,00.0,39.1,32.2,14.2,0002.2,0016.12,0008.10,0007.51
2022-09-14 05:41:00,,0822.6,5.00,0.00,30.4,29.1,00.0,39.1,32.2,14.1,0002.2,0016.81,0008.18,0007.57
2022-09-14 05:42:00,,0822.6,5.02,0.00,30.4,29.1,00.0,39.1,32.2,14.1,0002.2,0016.99,0008.25,0007.61
2022-09-14 05:43:00,,0822.6,4.99,0.00,30.4,29.1,00.0,39.1,32.3,14.2,0002.1,0017.20,0008.32,0007.66
2022-09-14 05:44:00,,0822.6,5.01,0.00,30.4,29.1,00.0,39.2,32.3,14.2,0002.0,0015.95,0008.37,0007.70
2022-09-14 05:45:00,,0822.6,4.99,0.00,30.4,29.1,00.0,39.2,32.3,14.1,0001.8,0016.15,0008.45,0007.74
2022-09-14 05:46:00,,0822.6,5.02,0.00,30.5,29.1,00.0,39.2,32.3,14.1,0001.5,0015.99,0008.52,0007.78
2022-09-14 05:47:00,,0822.6,4.99,0.00,30.5,29.1,00.0,39.2,32.3,14.1,0001.8,0014.81,0008.61,0007.80
2022-09-14 05:48:00,,0822.6,5.01,0.00,30.5,29.1,00.0,39.2,32.3,14.1,0001.9,0014.90,0008.66,0007.83
2022-09-14 05:49:00,,0822.6,4.99,0.00,30.5,29.0,00.0,39.2,32.3,14.1,0001.8,0014.90,0008.64,0007.80
2022-09-14 05:50:00,,0822.6,5.00,0.00,30.5,27.6,00.0,39.2,32.2,14.2,0001.9,0014.64,0008.65,0007.78
2022-09-14 05:51:00,,0822.6,5.01,0.00,30.4,26.8,00.0,39.1,32.1,14.3,0002.1,0014.05,0008.65,0007.77
2022-09-14 05:52:00,,0822.5,5.00,0.00,30.3,26.8,00.0,39.1,32.0,14.3,0001.9,0013.65,0008.72,0007.81
2022-09-14 05:53:00,,0822.5,4.99,0.00,30.2,27.1,00.0,39.0,31.8,14.4,0001.5,0013.81,0008.86,0007.92
2022-09-14 05:54:00,,0822.5,5.00,0.00,30.2,27.4,00.0,39.0,31.7,14.4,0001.5,0013.67,0008.97,0008.04
2022-09-14 05:55:00,,0822.5,5.00,0.00,30.1,27.7,00.0,39.0,31.7,14.5,0001.2,0013.91,0009.12,0008.16
2022-09-14 05:56:00,,0822.5,5.00,0.00,30.1,27.9,00.0,39.0,31.8,14.5,0001.3,0014.39,0009.21,0008.27
2022-09-14 05:57:00,,0822.5,4.99,0.00,30.1,28.1,00.0,38.9,31.8,14.5,0001.6,0014.84,0009.24,0008.32
2022-09-14 05:58:00,,0822.5,5.01,0.00,30.1,28.2,00.0,38.9,31.8,14.5,0001.2,0014.74,0009.19,0008.35
2022-09-14 05:59:00,,0822.5,4.99,0.00,30.1,28.3,00.0,38.9,31.9,14.5,0000.8,0014.53,0009.21,0008.39
